NN5DX-13 Weather Reports


time (UTC)temp
C
wind
direction
speed
KPH
gust
KPH
rain 1hr
cm
rain 24hr
cm
rain mn
cm
humidity
%
barometer
mb
20260510153517 32 315 1.6 16.1 0.00 0.00 0.00 20 1012.5
20260510153017 32 293 4.8 14.5 0.00 0.00 0.00 21 1012.5
20260510152517 31 270 1.6 9.7 0.00 0.00 0.00 22 1012.4
20260510152017 31 293 1.6 9.7 0.00 0.00 0.00 24 1012.4
20260510151517 31 293 1.6 9.7 0.00 0.00 0.00 25 1012.5
20260510151017 31 270 1.6 9.7 0.00 0.00 0.00 24 1012.3
20260510150518 30 0.0 3.2 0.00 0.00 0.00 26 1012.4
20260510150017 30 0.0 6.4 0.00 0.00 0.00 26 1012.4
20260510145518 30 0.0 4.8 0.00 0.00 0.00 27 1012.3
20260510145019 30 0.0 1.6 0.00 0.00 0.00 27 1012.4
20260510144517 29 0.0 0.0 0.00 0.00 0.00 28 1012.2
20260510144017 29 0.0 1.6 0.00 0.00 0.00 28 1012.3
20260510143517 28 0.0 0.0 0.00 0.00 0.00 29 1012.3
20260510143017 28 0.0 0.0 0.00 0.00 0.00 29 1012.3
20260510142517 28 0.0 0.0 0.00 0.00 0.00 31 1012.4
20260510142017 27 0.0 8.0 0.00 0.00 0.00 32 1012.3
20260510141518 27 0.0 3.2 0.00 0.00 0.00 32 1012.3
20260510141017 27 0.0 0.0 0.00 0.00 0.00 33 1012.8
20260510140517 27 0.0 0.0 0.00 0.00 0.00 35 1012.7
20260510140017 26 0.0 0.0 0.00 0.00 0.00 36 1012.5
20260510135517 26 0.0 0.0 0.00 0.00 0.00 38 1012.5
20260510135017 25 0.0 0.0 0.00 0.00 0.00 39 1012.3
20260510134517 25 0.0 0.0 0.00 0.00 0.00 40 1012.2
20260510134017 24 0.0 0.0 0.00 0.00 0.00 42 1012.4
20260510133517 23 0.0 0.0 0.00 0.00 0.00 46 1012.3
20260510133017 23 0.0 0.0 0.00 0.00 0.00 49 1012.3
20260510132517 23 0.0 0.0 0.00 0.00 0.00 51 1012.3
20260510132018 23 0.0 0.0 0.00 0.00 0.00 54 1012.3
20260510131517 22 0.0 0.0 0.00 0.00 0.00 56 1012.0
20260510131017 22 0.0 0.0 0.00 0.00 0.00 56 1012.3
20260510130517 21 0.0 0.0 0.00 0.00 0.00 58 1012.1
20260510130017 21 0.0 3.2 0.00 0.00 0.00 59 1012.0
20260510125517 20 0.0 0.0 0.00 0.00 0.00 60 1011.7
20260510125018 20 0.0 0.0 0.00 0.00 0.00 61 1011.7
20260510124518 20 0.0 0.0 0.00 0.00 0.00 63 1011.4
20260510124017 19 0.0 0.0 0.00 0.00 0.00 64 1011.6
20260510123521 18 0.0 0.0 0.00 0.00 0.00 66 1011.4
20260510123017 17 180 1.6 8.0 0.00 0.00 0.00 68 1011.1
20260510122517 17 0.0 1.6 0.00 0.00 0.00 68 1011.1
20260510122017 17 0.0 0.0 0.00 0.00 0.00 67 1011.0
20260510121517 17 0.0 0.0 0.00 0.00 0.00 67 1011.0
20260510121017 17 0.0 0.0 0.00 0.00 0.00 68 1010.9
20260510120517 17 0.0 0.0 0.00 0.00 0.00 68 1010.8
20260510120018 17 0.0 0.0 0.00 0.00 0.00 68 1010.9
20260510115517 17 0.0 0.0 0.00 0.00 0.00 69 1010.9
20260510115017 17 0.0 0.0 0.00 0.00 0.00 69 1010.8
20260510114517 17 0.0 0.0 0.00 0.00 0.00 68 1010.8
20260510114017 17 0.0 0.0 0.00 0.00 0.00 68 1010.8
20260510113517 17 0.0 0.0 0.00 0.00 0.00 67 1010.8
20260510113017 18 0.0 0.0 0.00 0.00 0.00 66 1011.1
20260510112518 18 0.0 0.0 0.00 0.00 0.00 66 1011.1
20260510112018 18 0.0 0.0 0.00 0.00 0.00 66 1011.1
20260510111517 18 0.0 0.0 0.00 0.00 0.00 67 1011.0
20260510111017 18 0.0 0.0 0.00 0.00 0.00 68 1010.9
20260510110517 18 0.0 0.0 0.00 0.00 0.00 67 1010.9
20260510110017 18 0.0 0.0 0.00 0.00 0.00 66 1010.9
20260510105517 18 0.0 0.0 0.00 0.00 0.00 66 1010.9
20260510105017 18 0.0 0.0 0.00 0.00 0.00 66 1010.6
20260510104517 18 0.0 0.0 0.00 0.00 0.00 65 1010.8
20260510104017 18 0.0 0.0 0.00 0.00 0.00 64 1010.9
20260510103517 19 0.0 0.0 0.00 0.00 0.00 63 1010.8
20260510103018 19 0.0 0.0 0.00 0.00 0.00 63 1010.8
20260510102517 18 0.0 0.0 0.00 0.00 0.00 64 1010.8
20260510102017 18 0.0 0.0 0.00 0.00 0.00 63 1010.9
20260510101517 19 0.0 0.0 0.00 0.00 0.00 62 1010.9
20260510101017 19 0.0 0.0 0.00 0.00 0.00 61 1011.1
20260510100517 20 0.0 0.0 0.00 0.00 0.00 61 1011.1
20260510100017 20 0.0 0.0 0.00 0.00 0.00 61 1011.2
20260510095517 20 0.0 0.0 0.00 0.00 0.00 61 1011.1
20260510095017 20 0.0 0.0 0.00 0.00 0.00 60 1011.0
20260510094517 20 0.0 0.0 0.00 0.00 0.00 60 1010.9
20260510094017 20 0.0 0.0 0.00 0.00 0.00 60 1010.8
20260510093518 20 0.0 0.0 0.00 0.00 0.00 61 1011.0
20260510093017 20 0.0 0.0 0.00 0.00 0.00 61 1010.9
20260510092517 20 0.0 0.0 0.00 0.00 0.00 61 1010.8
20260510092017 20 0.0 0.0 0.00 0.00 0.00 62 1010.8
20260510091517 21 0.0 0.0 0.00 0.00 0.00 62 1010.9
20260510091018 21 0.0 0.0 0.00 0.00 0.00 61 1010.9
20260510090517 21 0.0 0.0 0.00 0.00 0.00 61 1010.9
20260510090016 21 0.0 0.0 0.00 0.00 0.00 60 1011.0
20260510085517 21 0.0 0.0 0.00 0.00 0.00 60 1011.0
20260510085017 21 0.0 0.0 0.00 0.00 0.00 60 1011.0
20260510084517 21 180 1.6 9.7 0.00 0.00 0.00 60 1011.1
20260510084017 21 180 4.8 16.1 0.00 0.00 0.00 60 1010.9
20260510083517 21 0.0 1.6 0.00 0.00 0.00 60 1010.9
20260510083017 22 0.0 4.8 0.00 0.00 0.00 60 1011.0
20260510082517 22 0.0 1.6 0.00 0.00 0.00 59 1011.0
20260510082017 22 0.0 6.4 0.00 0.00 0.00 59 1011.2
20260510081517 22 0.0 3.2 0.00 0.00 0.00 59 1011.2
20260510081017 22 180 3.2 16.1 0.00 0.00 0.00 58 1011.4
20260510080517 22 180 6.4 17.7 0.00 0.00 0.00 58 1011.4
20260510080016 22 180 9.7 19.3 0.00 0.00 0.00 57 1011.6
20260510075517 22 180 8.0 17.7 0.00 0.00 0.00 57 1011.7
20260510075016 22 180 9.7 17.7 0.00 0.00 0.00 56 1011.8
20260510074516 22 180 1.6 20.9 0.00 0.00 0.00 56 1011.8
20260510074016 22 180 9.7 17.7 0.00 0.00 0.00 55 1011.8
20260510073516 22 180 9.7 17.7 0.00 0.00 0.00 55 1011.9
20260510073017 22 180 6.4 20.9 0.00 0.00 0.00 55 1012.0
20260510072518 22 180 8.0 17.7 0.00 0.00 0.00 54 1012.1
20260510072017 22 203 9.7 20.9 0.00 0.00 0.00 54 1012.1
20260510071518 22 203 6.4 16.1 0.00 0.00 0.00 53 1012.2
20260510071016 23 225 4.8 19.3 0.00 0.00 0.00 53 1012.2
20260510070516 23 203 6.4 17.7 0.00 0.00 0.00 52 1012.4
20260510070017 23 180 4.8 16.1 0.00 0.00 0.00 52 1012.4
20260510065517 23 203 4.8 17.7 0.00 0.00 0.00 51 1012.4
20260510065017 23 180 4.8 14.5 0.00 0.00 0.00 51 1012.4
20260510064516 23 203 3.2 19.3 0.00 0.00 0.00 50 1012.5
20260510064018 23 180 4.8 19.3 0.00 0.00 0.00 50 1012.3
20260510063517 23 203 4.8 17.7 0.00 0.00 0.00 49 1012.4
20260510063016 23 203 1.6 17.7 0.00 0.00 0.00 49 1012.5
20260510062516 23 180 4.8 20.9 0.00 0.00 0.00 48 1012.4
20260510062017 23 203 6.4 17.7 0.00 0.00 0.00 48 1012.6
20260510061517 23 180 3.2 17.7 0.00 0.00 0.00 47 1012.7
20260510061017 23 158 1.6 11.3 0.00 0.00 0.00 46 1012.5
20260510060517 23 180 1.6 17.7 0.00 0.00 0.00 45 1012.4
20260510060017 23 180 8.0 17.7 0.00 0.00 0.00 45 1012.5
20260510055517 23 180 4.8 17.7 0.00 0.00 0.00 43 1012.5
20260510055017 23 180 3.2 19.3 0.00 0.00 0.00 42 1012.6
20260510054517 23 203 1.6 19.3 0.00 0.00 0.00 41 1012.5
20260510054018 23 0.0 3.2 0.00 0.00 0.00 40 1012.4
20260510053517 23 225 1.6 17.7 0.00 0.00 0.00 39 1012.4
20260510053017 23 180 1.6 17.7 0.00 0.00 0.00 38 1012.3
20260510052517 23 180 4.8 16.1 0.00 0.00 0.00 37 1012.3
20260510052017 23 180 1.6 12.9 0.00 0.00 0.00 36 1012.3
20260510051517 23 180 1.6 12.9 0.00 0.00 0.00 35 1012.4
20260510051017 23 180 1.6 9.7 0.00 0.00 0.00 35 1012.4
20260510050517 23 0.0 9.7 0.00 0.00 0.00 34 1012.4
20260510050018 23 0.0 3.2 0.00 0.00 0.00 32 1012.4
20260510045516 23 0.0 1.6 0.00 0.00 0.00 32 1012.4
20260510045016 23 0.0 1.6 0.00 0.00 0.00 31 1012.5
20260510044516 23 0.0 1.6 0.00 0.00 0.00 30 1012.3
20260510044016 23 0.0 0.0 0.00 0.00 0.00 30 1012.2
20260510043516 23 0.0 1.6 0.00 0.00 0.00 29 1012.3
20260510043016 23 0.0 1.6 0.00 0.00 0.00 29 1012.2
20260510042515 23 0.0 0.0 0.00 0.00 0.00 29 1012.2
20260510042015 23 0.0 1.6 0.00 0.00 0.00 28 1012.1
20260510041515 24 158 1.6 8.0 0.00 0.00 0.00 28 1012.3
20260510041015 24 0.0 0.0 0.00 0.00 0.00 28 1012.1
20260510040515 24 0.0 1.6 0.00 0.00 0.00 27 1012.1
20260510040015 24 0.0 6.4 0.00 0.00 0.00 27 1012.1
20260510035516 24 0.0 0.0 0.00 0.00 0.00 27 1012.1
20260510035016 24 180 1.6 17.7 0.00 0.00 0.00 28 1012.0
20260510034533 24 203 1.6 14.5 0.00 0.00 0.00 28 1011.9
20260510034020 24 0.0 1.6 0.00 0.00 0.00 28 1011.5
20260510033515 24 180 1.6 12.9 0.00 0.00 0.00 28 1011.5
20260510033016 24 0.0 3.2 0.00 0.00 0.00 28 1011.5
20260510032516 24 180 1.6 9.7 0.00 0.00 0.00 28 1011.4
20260510032015 24 0.0 0.0 0.00 0.00 0.00 28 1011.3
20260510031516 24 0.0 0.0 0.00 0.00 0.00 28 1011.3
20260510031016 24 0.0 0.0 0.00 0.00 0.00 27 1011.3
20260510030518 24 0.0 0.0 0.00 0.00 0.00 27 1011.2
20260510030016 25 0.0 0.0 0.00 0.00 0.00 27 1011.3
20260510025518 25 0.0 0.0 0.00 0.00 0.00 27 1011.1
20260510025018 25 0.0 0.0 0.00 0.00 0.00 27 1011.0
20260510024518 25 0.0 0.0 0.00 0.00 0.00 26 1011.1
20260510024018 26 0.0 0.0 0.00 0.00 0.00 26 1010.8
20260510023518 26 0.0 0.0 0.00 0.00 0.00 25 1010.6
20260510023018 26 0.0 0.0 0.00 0.00 0.00 24 1010.8
20260510022517 26 0.0 0.0 0.00 0.00 0.00 24 1010.7
20260510022018 27 0.0 0.0 0.00 0.00 0.00 23 1010.6
20260510021517 27 0.0 0.0 0.00 0.00 0.00 23 1010.6
20260510021018 27 0.0 0.0 0.00 0.00 0.00 22 1010.0
20260510020518 27 0.0 0.0 0.00 0.00 0.00 22 1009.9
20260510020017 28 0.0 0.0 0.00 0.00 0.00 21 1010.0
20260510015517 28 0.0 0.0 0.00 0.00 0.00 21 1010.0
20260510015018 28 0.0 0.0 0.00 0.00 0.00 21 1009.9
20260510014517 29 0.0 0.0 0.00 0.00 0.00 20 1009.9
20260510014018 29 0.0 0.0 0.00 0.00 0.00 20 1009.1
20260510013517 30 0.0 0.0 0.00 0.00 0.00 19 1009.3
20260510013018 30 0.0 0.0 0.00 0.00 0.00 19 1009.2
20260510012517 30 0.0 0.0 0.00 0.00 0.00 19 1009.2
20260510012017 31 158 1.6 6.4 0.00 0.00 0.00 18 1009.4
20260510011517 31 0.0 0.0 0.00 0.00 0.00 18 1009.3
20260510011017 31 0.0 0.0 0.00 0.00 0.00 17 1008.8
20260510010518 32 0.0 0.0 0.00 0.00 0.00 16 1008.9
20260510010021 32 0.0 0.0 0.00 0.00 0.00 16 1008.8
20260510005518 32 158 1.6 12.9 0.00 0.00 0.00 16 1008.9
20260510005017 33 0.0 0.0 0.00 0.00 0.00 15 1008.9
20260510004519 33 0.0 0.0 0.00 0.00 0.00 14 1008.9
20260510004020 33 135 3.2 9.7 0.00 0.00 0.00 14 1008.6
20260510003518 33 0.0 0.0 0.00 0.00 0.00 14 1008.5
20260510003017 33 0.0 0.0 0.00 0.00 0.00 13 1008.5
20260510002519 33 135 3.2 12.9 0.00 0.00 0.00 13 1008.4
20260510002017 33 135 1.6 11.3 0.00 0.00 0.00 13 1008.5
20260510001518 33 135 1.6 6.4 0.00 0.00 0.00 12 1008.8
20260510001018 34 158 1.6 8.0 0.00 0.00 0.00 12 1008.9
20260510000519 34 0.0 6.4 0.00 0.00 0.00 12 1008.8
20260510000018 33 113 1.6 8.0 0.00 0.00 0.00 11 1008.8
20260509235518 33 68 1.6 8.0 0.00 0.00 0.00 12 1008.8
20260509235017 33 0.0 4.8 0.00 0.00 0.00 12 1008.9
20260509234518 34 135 3.2 9.7 0.00 0.00 0.00 11 1009.0
20260509234018 35 180 3.2 6.4 0.00 0.00 0.00 11 1009.4
20260509233518 34 0.0 1.6 0.00 0.00 0.00 12 1009.4
20260509233017 34 0.0 0.0 0.00 0.00 0.00 12 1009.4
20260509232517 34 0.0 0.0 0.00 0.00 0.00 12 1009.3
20260509232017 33 0.0 1.6 0.00 0.00 0.00 13 1009.3
20260509231517 33 0.0 3.2 0.00 0.00 0.00 12 1009.2
20260509231017 33 90 4.8 16.1 0.00 0.00 0.00 13 1009.6
20260509230517 34 113 6.4 17.7 0.00 0.00 0.00 12 1009.5
20260509230018 35 0.0 0.0 0.00 0.00 0.00 11 1009.8
20260509225517 35 0.0 0.0 0.00 0.00 0.00 10 1009.8
20260509225018 34 0.0 0.0 0.00 0.00 0.00 12 1009.7
20260509224522 34 0.0 0.0 0.00 0.00 0.00 11 1009.7
20260509224017 35 0.0 1.6 0.00 0.00 0.00 12 1009.6
20260509223518 35 0.0 0.0 0.00 0.00 0.00 12 1009.6
20260509223025 35 0.0 6.4 0.00 0.00 0.00 11 1009.6
20260509222520 35 135 3.2 11.3 0.00 0.00 0.00 12 1009.6
20260509222022 35 0.0 1.6 0.00 0.00 0.00 12 1009.7
20260509221519 35 0.0 0.0 0.00 0.00 0.00 12 1009.8
20260509221018 35 0.0 1.6 0.00 0.00 0.00 12 1010.1
20260509220518 35 0.0 4.8 0.00 0.00 0.00 12 1010.1
20260509220017 36 180 1.6 8.0 0.00 0.00 0.00 12 1010.2
20260509215521 35 0.0 1.6 0.00 0.00 0.00 12 1010.2
20260509215017 35 0.0 0.0 0.00 0.00 0.00 11 1010.3
20260509214518 36 180 1.6 6.4 0.00 0.00 0.00 11 1010.4
20260509214019 36 180 1.6 6.4 0.00 0.00 0.00 10 1010.4
20260509213532 36 0.0 3.2 0.00 0.00 0.00 11 1010.4
20260509213018 36 0.0 3.2 0.00 0.00 0.00 11 1010.5
20260509212518 36 113 1.6 4.8 0.00 0.00 0.00 11 1010.6
20260509212031 36 0.0 0.0 0.00 0.00 0.00 11 1010.6
20260509211518 35 0.0 0.0 0.00 0.00 0.00 13 1010.7
20260509211017 35 0.0 3.2 0.00 0.00 0.00 11 1010.7
20260509210517 35 0.0 3.2 0.00 0.00 0.00 12 1010.8
20260509210017 35 0.0 6.4 0.00 0.00 0.00 13 1010.9
20260509205517 35 180 1.6 6.4 0.00 0.00 0.00 12 1011.0
20260509205017 35 135 3.2 17.7 0.00 0.00 0.00 12 1010.9
20260509204518 35 135 3.2 17.7 0.00 0.00 0.00 11 1011.0
20260509204017 35 203 1.6 4.8 0.00 0.00 0.00 12 1011.2
20260509203518 35 135 1.6 6.4 0.00 0.00 0.00 12 1011.3
20260509203018 35 0.0 1.6 0.00 0.00 0.00 13 1011.4
20260509202518 35 0.0 4.8 0.00 0.00 0.00 13 1011.3
20260509202018 35 158 3.2 11.3 0.00 0.00 0.00 13 1011.6
20260509201517 34 0.0 3.2 0.00 0.00 0.00 14 1011.5
20260509201018 33 45 4.8 16.1 0.00 0.00 0.00 13 1011.5
20260509200517 33 0.0 8.0 0.00 0.00 0.00 13 1011.7
20260509200017 33 45 1.6 14.5 0.00 0.00 0.00 13 1011.6
20260509195518 33 0.0 0.0 0.00 0.00 0.00 13 1011.8
20260509195018 34 0.0 0.0 0.00 0.00 0.00 13 1011.9
20260509194517 34 0.0 0.0 0.00 0.00 0.00 13 1012.0
20260509194018 34 0.0 0.0 0.00 0.00 0.00 12 1012.1
20260509193517 34 0.0 1.6 0.00 0.00 0.00 14 1012.1
20260509193018 33 0.0 0.0 0.00 0.00 0.00 15 1012.1
20260509192518 34 0.0 0.0 0.00 0.00 0.00 15 1012.3
20260509192018 33 0.0 0.0 0.00 0.00 0.00 15 1012.3
20260509191517 33 0.0 0.0 0.00 0.00 0.00 15 1012.3
20260509191018 34 0.0 0.0 0.00 0.00 0.00 14 1012.5
20260509190517 34 0.0 0.0 0.00 0.00 0.00 14 1012.6
20260509190017 34 0.0 0.0 0.00 0.00 0.00 14 1012.7
20260509185518 34 0.0 0.0 0.00 0.00 0.00 14 1012.7
20260509185017 35 0.0 0.0 0.00 0.00 0.00 14 1012.9
20260509184517 34 0.0 0.0 0.00 0.00 0.00 15 1012.8
20260509184018 33 0.0 0.0 0.00 0.00 0.00 15 1013.0
20260509183517 33 0.0 0.0 0.00 0.00 0.00 16 1013.0
20260509183017 33 0.0 0.0 0.00 0.00 0.00 16 1013.1
20260509182518 32 0.0 0.0 0.00 0.00 0.00 15 1012.9
20260509182020 33 0.0 0.0 0.00 0.00 0.00 17 1013.4
20260509181517 33 0.0 0.0 0.00 0.00 0.00 16 1013.4
20260509181017 33 0.0 0.0 0.00 0.00 0.00 16 1013.6
20260509180521 33 0.0 0.0 0.00 0.00 0.00 17 1013.7
20260509180018 33 0.0 0.0 0.00 0.00 0.00 17 1013.5
20260509175517 32 0.0 0.0 0.00 0.00 0.00 17 1013.6
20260509175018 32 293 1.6 12.9 0.00 0.00 0.00 18 1013.7
20260509174517 32 0.0 0.0 0.00 0.00 0.00 18 1013.5
20260509174017 31 0.0 0.0 0.00 0.00 0.00 18 1013.7
20260509173521 31 0.0 0.0 0.00 0.00 0.00 19 1013.7
20260509173018 31 0.0 0.0 0.00 0.00 0.00 19 1013.8
20260509172517 31 0.0 0.0 0.00 0.00 0.00 19 1014.0
20260509172017 31 0.0 0.0 0.00 0.00 0.00 19 1014.0
20260509171517 31 0.0 0.0 0.00 0.00 0.00 19 1014.0
20260509171018 30 0.0 0.0 0.00 0.00 0.00 19 1014.1
20260509170517 30 0.0 0.0 0.00 0.00 0.00 19 1014.1
20260509170018 30 0.0 0.0 0.00 0.00 0.00 21 1014.2
20260509165517 30 0.0 6.4 0.00 0.00 0.00 20 1014.2
20260509165017 30 0.0 0.0 0.00 0.00 0.00 20 1014.3
20260509164517 30 0.0 0.0 0.00 0.00 0.00 21 1014.3
20260509164018 31 0.0 0.0 0.00 0.00 0.00 20 1014.7
20260509163518 31 0.0 0.0 0.00 0.00 0.00 22 1014.5
20260509163017 30 0.0 0.0 0.00 0.00 0.00 21 1014.4
20260509162518 30 0.0 0.0 0.00 0.00 0.00 21 1014.4
20260509162018 29 0.0 0.0 0.00 0.00 0.00 22 1014.3
20260509161518 30 0.0 0.0 0.00 0.00 0.00 22 1014.5
20260509161020 30 0.0 0.0 0.00 0.00 0.00 22 1014.6
20260509160517 29 0.0 0.0 0.00 0.00 0.00 22 1014.6
20260509160017 29 0.0 0.0 0.00 0.00 0.00 22 1014.6
20260509155518 29 0.0 0.0 0.00 0.00 0.00 22 1014.6
20260509155017 29 0.0 0.0 0.00 0.00 0.00 22 1014.8
20260509154517 29 0.0 0.0 0.00 0.00 0.00 23 1014.7
20260509154017 28 0.0 0.0 0.00 0.00 0.00 24 1014.7